N9CQL Weather Reports


time (UTC)temp
C
wind
direction
speed
KPH
gust
KPH
rain 1hr
cm
rain 24hr
cm
rain mn
cm
humidity
%
barometer
mb
20260509150244 17 220 4.8 4.8 0.00 0.00 0.00 74 1003.5
20260509145741 17 90 1.6 4.8 0.00 0.00 0.00 73 1003.3
20260509145240 16 256 1.6 3.2 0.00 0.00 0.00 76 1003.3
20260509144737 16 214 6.4 8.0 0.00 0.00 0.00 76 1003.6
20260509144234 16 254 1.6 3.2 0.00 0.00 0.00 76 1003.3
20260509143731 16 230 1.6 3.2 0.00 0.00 0.00 76 1003.1
20260509143229 16 194 4.8 9.7 0.00 0.00 0.00 77 1002.8
20260509142724 15 271 1.6 8.0 0.00 0.00 0.00 77 1002.8
20260509142221 15 156 3.2 4.8 0.00 0.00 0.00 78 1003.1
20260509141716 15 278 6.4 9.7 0.00 0.00 0.00 78 1003.2
20260509141214 15 294 3.2 4.8 0.00 0.00 0.00 79 1003.2
20260509140710 15 267 9.7 11.3 0.00 0.00 0.00 79 1003.3
20260509140208 15 271 4.8 8.0 0.00 0.00 0.00 79 1003.2
20260509135705 15 5 1.6 1.6 0.00 0.00 0.00 80 1003.2
20260509135203 15 168 1.6 3.2 0.00 0.00 0.00 81 1002.7
20260509134659 14 299 1.6 3.2 0.00 0.00 0.00 81 1002.9
20260509134157 14 211 4.8 4.8 0.00 0.00 0.00 81 1003.3
20260509133654 14 134 1.6 1.6 0.00 0.00 0.00 82 1002.9
20260509133151 13 153 1.6 1.6 0.00 0.00 0.00 82 1003.1
20260509132649 13 250 4.8 4.8 0.00 0.00 0.00 82 1003.3
20260509132148 13 187 3.2 3.2 0.00 0.00 0.00 82 1003.3
20260509131643 13 218 3.2 3.2 0.00 0.00 0.00 82 1003.3
20260509131140 13 259 3.2 4.8 0.00 0.00 0.00 83 1003.3
20260509130636 13 288 1.6 1.6 0.00 0.00 0.00 82 1003.2
20260509130132 13 278 3.2 3.2 0.00 0.00 0.00 83 1003.2
20260509125629 13 223 4.8 8.0 0.00 0.00 0.00 83 1003.2
20260509125126 13 27 0.0 0.0 0.00 0.00 0.00 84 1003.3
20260509124622 13 295 1.6 1.6 0.00 0.00 0.00 85 1003.1
20260509124120 12 310 1.6 3.2 0.00 0.00 0.00 86 1002.9
20260509123618 12 34 0.0 0.0 0.00 0.00 0.00 87 1003.2
20260509123114 12 263 1.6 3.2 0.00 0.00 0.00 89 1003.4
20260509122610 12 111 0.0 1.6 0.00 0.00 0.00 89 1002.9
20260509122108 12 111 0.0 0.0 0.00 0.00 0.00 90 1002.9
20260509121604 12 258 0.0 0.0 0.00 0.00 0.00 91 1002.9
20260509121101 11 198 0.0 0.0 0.00 0.00 0.00 91 1002.9
20260509120559 11 226 0.0 0.0 0.00 0.00 0.00 92 1003.1
20260509120058 11 163 0.0 0.0 0.00 0.00 0.00 92 1002.6
20260509115554 11 206 0.0 0.0 0.00 0.00 0.00 92 1002.8
20260509115052 11 231 0.0 0.0 0.00 0.00 0.00 92 1002.9
20260509114550 11 106 0.0 0.0 0.00 0.00 0.00 92 1002.7
20260509114049 11 242 0.0 1.6 0.00 0.00 0.00 92 1002.6
20260509113546 11 152 0.0 0.0 0.00 0.00 0.00 92 1002.6
20260509113044 11 164 0.0 0.0 0.00 0.00 0.00 92 1002.9
20260509112540 11 78 0.0 0.0 0.00 0.00 0.00 92 1002.5
20260509112037 11 49 0.0 0.0 0.00 0.00 0.00 92 1002.3
20260509111534 11 77 0.0 0.0 0.00 0.00 0.00 92 1002.4
20260509111031 11 106 0.0 0.0 0.00 0.00 0.00 92 1002.3
20260509110528 11 144 0.0 0.0 0.00 0.00 0.00 92 1002.3
20260509110025 11 118 0.0 0.0 0.00 0.00 0.00 92 1002.2
20260509105524 11 130 0.0 0.0 0.00 0.00 0.00 92 1002.5
20260509105021 11 122 0.0 0.0 0.00 0.00 0.00 92 1002.3
20260509104517 11 158 0.0 0.0 0.00 0.00 0.00 92 1002.3
20260509104014 11 133 0.0 1.6 0.00 0.00 0.00 92 1002.6
20260509103512 11 112 0.0 0.0 0.00 0.00 0.00 92 1002.5
20260509103010 11 110 0.0 0.0 0.00 0.00 0.00 92 1002.3
20260509102507 11 151 0.0 0.0 0.00 0.00 0.00 92 1002.7
20260509102004 11 106 0.0 0.0 0.00 0.00 0.00 92 1002.5
20260509101500 11 97 0.0 0.0 0.00 0.00 0.00 92 1002.6
20260509100957 11 102 0.0 0.0 0.00 0.00 0.00 91 1002.6
20260509100454 11 187 1.6 1.6 0.00 0.00 0.00 91 1002.6
20260509095951 11 107 0.0 0.0 0.00 0.00 0.00 91 1002.5
20260509095448 11 89 0.0 0.0 0.00 0.00 0.00 91 1002.8
20260509094945 11 38 0.0 0.0 0.00 0.00 0.00 91 1002.7
20260509094442 11 100 0.0 0.0 0.00 0.00 0.00 91 1002.6
20260509093939 11 96 0.0 0.0 0.00 0.00 0.00 91 1002.8
20260509093437 11 270 0.0 0.0 0.00 0.00 0.00 91 1003.1
20260509092935 11 104 0.0 0.0 0.00 0.00 0.00 91 1002.9
20260509092432 11 140 0.0 0.0 0.00 0.00 0.00 91 1002.8
20260509091931 11 185 1.6 3.2 0.00 0.00 0.00 91 1003.2
20260509091427 11 157 0.0 0.0 0.00 0.00 0.00 91 1003.1
20260509090924 11 144 0.0 0.0 0.00 0.00 0.00 91 1003.4
20260509090421 11 147 0.0 0.0 0.00 0.00 0.00 91 1003.3
20260509085919 11 200 0.0 0.0 0.00 0.00 0.00 91 1003.2
20260509085416 11 162 0.0 1.6 0.00 0.00 0.00 90 1003.3
20260509084912 11 221 0.0 0.0 0.00 0.00 0.00 90 1003.5
20260509084409 11 306 1.6 3.2 0.00 0.00 0.00 90 1003.4
20260509083907 11 273 0.0 0.0 0.00 0.00 0.00 90 1003.4
20260509083404 11 121 0.0 0.0 0.00 0.00 0.00 90 1003.3
20260509082900 11 183 0.0 1.6 0.00 0.00 0.00 90 1003.4
20260509082357 11 254 1.6 1.6 0.00 0.00 0.00 90 1002.9
20260509081854 11 191 0.0 1.6 0.00 0.00 0.00 90 1003.3
20260509081351 11 179 1.6 1.6 0.00 0.00 0.00 89 1002.9
20260509080849 11 277 3.2 3.2 0.00 0.00 0.00 89 1003.2
20260509080347 11 242 1.6 3.2 0.00 0.00 0.00 89 1002.9
20260509075845 11 7 0.0 0.0 0.00 0.00 0.00 89 1003.2
20260509075341 11 160 1.6 3.2 0.00 0.00 0.00 89 1003.5
20260509074839 11 291 1.6 1.6 0.00 0.00 0.00 89 1003.5
20260509074336 11 163 1.6 1.6 0.00 0.00 0.00 88 1003.5
20260509073832 11 125 0.0 0.0 0.00 0.00 0.00 88 1003.3
20260509073329 11 132 0.0 0.0 0.00 0.00 0.00 88 1003.4
20260509072826 11 87 0.0 1.6 0.00 0.00 0.00 88 1003.5
20260509072322 12 205 1.6 3.2 0.00 0.00 0.00 88 1003.7
20260509071819 12 149 1.6 1.6 0.00 0.00 0.00 88 1003.6
20260509071316 12 234 1.6 3.2 0.00 0.00 0.00 87 1003.7
20260509070813 12 216 1.6 3.2 0.00 0.00 0.00 87 1003.8
20260509070310 12 124 0.0 0.0 0.00 0.00 0.00 87 1003.9
20260509065806 12 117 0.0 1.6 0.00 0.00 0.00 87 1003.9
20260509065306 12 94 0.0 1.6 0.00 0.00 0.00 87 1004.1
20260509064758 12 282 1.6 1.6 0.00 0.00 0.00 86 1003.9
20260509064256 12 226 1.6 1.6 0.00 0.00 0.00 86 1004.2
20260509063753 12 358 1.6 1.6 0.00 0.00 0.00 86 1003.9
20260509063249 12 298 1.6 3.2 0.00 0.00 0.00 86 1004.0
20260509062747 12 88 0.0 0.0 0.00 0.00 0.00 86 1004.3
20260509062244 12 138 1.6 1.6 0.00 0.00 0.00 85 1004.2
20260509061741 12 178 0.0 1.6 0.00 0.00 0.00 86 1004.2
20260509061239 12 31 1.6 1.6 0.00 0.00 0.00 85 1004.3
20260509060736 12 108 1.6 1.6 0.00 0.00 0.00 86 1004.1
20260509060232 12 140 0.0 1.6 0.00 0.00 0.00 85 1004.5
20260509055728 12 170 1.6 1.6 0.00 0.00 0.00 85 1004.6
20260509055224 12 214 1.6 1.6 0.00 0.00 0.00 85 1004.6
20260509054720 12 203 3.2 3.2 0.00 0.00 0.00 86 1004.5
20260509054218 12 111 1.6 1.6 0.00 0.00 0.00 86 1004.4
20260509053716 12 140 1.6 1.6 0.00 0.00 0.00 86 1004.5
20260509053213 13 52 0.0 0.0 0.00 0.00 0.00 86 1004.4
20260509052711 13 142 0.0 1.6 0.00 0.00 0.00 85 1004.4
20260509052208 13 84 0.0 0.0 0.00 0.00 0.00 85 1004.5
20260509051706 13 228 1.6 3.2 0.00 0.00 0.00 85 1004.3
20260509051203 13 95 0.0 1.6 0.00 0.00 0.00 85 1004.5
20260509050700 13 117 3.2 4.8 0.00 0.00 0.00 84 1004.6
20260509050156 13 107 1.6 3.2 0.00 0.00 0.00 84 1004.6
20260509045654 13 279 1.6 3.2 0.00 0.00 0.00 84 1004.5
20260509045150 13 5 1.6 1.6 0.00 0.00 0.00 84 1004.5
20260509044648 13 122 0.0 0.0 0.00 0.00 0.00 83 1004.7
20260509044145 13 168 0.0 0.0 0.00 0.00 0.00 83 1004.5
20260509043642 13 190 1.6 1.6 0.00 0.00 0.00 82 1004.6
20260509043137 13 168 0.0 0.0 0.00 0.00 0.00 82 1004.5
20260509042634 13 117 0.0 0.0 0.00 0.00 0.00 82 1004.3
20260509042130 13 138 0.0 0.0 0.00 0.00 0.00 81 1004.6
20260509041627 13 82 0.0 0.0 0.00 0.00 0.00 81 1004.8
20260509041124 13 199 0.0 0.0 0.00 0.00 0.00 80 1004.7
20260509040623 13 123 0.0 0.0 0.00 0.00 0.00 80 1004.6
20260509040119 13 162 0.0 0.0 0.00 0.00 0.00 79 1004.7
20260509035616 13 166 0.0 0.0 0.00 0.00 0.00 78 1004.9
20260509035112 13 101 0.0 0.0 0.00 0.00 0.00 78 1004.6
20260509034611 13 93 0.0 0.0 0.00 0.00 0.00 78 1004.9
20260509034107 13 176 0.0 0.0 0.00 0.00 0.00 77 1004.8
20260509033604 13 144 0.0 0.0 0.00 0.00 0.00 77 1004.9
20260509033101 14 60 0.0 0.0 0.00 0.00 0.00 77 1005.0
20260509032559 14 101 0.0 0.0 0.00 0.00 0.00 77 1004.7
20260509032055 14 112 0.0 0.0 0.00 0.00 0.00 77 1004.7
20260509031553 14 83 0.0 0.0 0.00 0.00 0.00 77 1004.6
20260509031050 14 84 0.0 0.0 0.00 0.00 0.00 76 1004.7
20260509030549 14 92 0.0 0.0 0.00 0.00 0.00 76 1004.8
20260509030045 14 93 0.0 0.0 0.00 0.00 0.00 75 1005.2
20260509025541 14 88 0.0 0.0 0.00 0.00 0.00 75 1004.8
20260509025037 14 85 0.0 0.0 0.00 0.00 0.00 75 1005.0
20260509024533 13 85 0.0 0.0 0.00 0.00 0.00 75 1005.2
20260509024029 13 80 0.0 0.0 0.00 0.00 0.00 76 1004.9
20260509023527 12 77 0.0 0.0 0.00 0.00 0.00 76 1005.0
20260509023024 12 77 0.0 0.0 0.00 0.00 0.00 76 1005.1
20260509022520 12 77 0.0 0.0 0.00 0.00 0.00 75 1005.1
20260509022018 12 77 0.0 0.0 0.00 0.00 0.00 75 1005.2
20260509021515 12 75 0.0 0.0 0.00 0.00 0.00 74 1005.0
20260509021012 13 75 0.0 0.0 0.00 0.00 0.00 73 1004.9
20260509020510 13 75 0.0 0.0 0.00 0.00 0.00 73 1005.1
20260509020007 13 75 0.0 0.0 0.00 0.00 0.00 73 1005.1
20260509015506 13 75 0.0 0.0 0.00 0.00 0.00 73 1005.0
20260509015002 13 75 0.0 0.0 0.00 0.00 0.00 73 1004.7
20260509014459 13 75 0.0 0.0 0.00 0.00 0.00 73 1004.7
20260509013955 13 75 0.0 0.0 0.00 0.00 0.00 73 1004.9
20260509013452 13 75 0.0 0.0 0.00 0.00 0.00 73 1004.7
20260509012948 13 75 0.0 0.0 0.00 0.00 0.00 72 1005.0
20260509012444 14 62 0.0 0.0 0.00 0.00 0.00 71 1004.7
20260509011941 14 63 0.0 0.0 0.00 0.00 0.00 71 1004.7
20260509011439 14 63 0.0 0.0 0.00 0.00 0.00 70 1004.4
20260509010937 15 63 0.0 0.0 0.00 0.00 0.00 70 1004.5
20260509010434 15 38 0.0 0.0 0.00 0.00 0.00 69 1004.6
20260509005931 15 57 0.0 0.0 0.00 0.00 0.00 69 1004.6
20260509005429 15 53 0.0 0.0 0.00 0.00 0.00 68 1004.7
20260509004928 15 73 0.0 0.0 0.00 0.00 0.00 68 1004.7
20260509004426 16 49 0.0 0.0 0.00 0.00 0.00 67 1004.7
20260509003923 16 50 0.0 0.0 0.00 0.00 0.00 67 1004.8
20260509003421 16 49 0.0 0.0 0.00 0.00 0.00 66 1004.7
20260509002917 16 49 0.0 0.0 0.00 0.00 0.00 66 1005.0
20260509002416 16 48 0.0 0.0 0.00 0.00 0.00 66 1004.9
20260509001913 16 61 0.0 0.0 0.00 0.00 0.00 64 1004.7
20260509001409 16 66 0.0 0.0 0.00 0.00 0.00 64 1004.7
20260509000906 17 66 0.0 0.0 0.00 0.00 0.00 63 1004.6
20260509000404 17 56 0.0 0.0 0.00 0.00 0.00 62 1004.9
20260508235859 17 77 0.0 0.0 0.00 0.00 0.00 63 1004.8
20260508235357 17 99 0.0 0.0 0.00 0.00 0.00 61 1004.9
20260508234854 17 69 0.0 0.0 0.00 0.00 0.00 63 1004.8
20260508234350 17 76 0.0 0.0 0.00 0.00 0.00 62 1005.0
20260508233849 18 75 0.0 0.0 0.00 0.00 0.00 61 1005.0
20260508233348 18 91 0.0 0.0 0.00 0.00 0.00 61 1004.7
20260508232844 18 335 0.0 0.0 0.00 0.00 0.00 61 1004.9
20260508232340 17 95 0.0 0.0 0.00 0.00 0.00 63 1004.8
20260508231839 18 28 0.0 0.0 0.00 0.00 0.00 61 1005.0
20260508231335 20 350 0.0 0.0 0.00 0.00 0.00 58 1004.8
20260508230832 20 286 0.0 0.0 0.00 0.00 0.00 57 1005.1
20260508230328 20 178 0.0 0.0 0.00 0.00 0.00 56 1004.7
20260508225826 20 239 0.0 0.0 0.00 0.00 0.00 58 1005.0
20260508225323 20 3 0.0 0.0 0.00 0.00 0.00 59 1004.9
20260508224821 19 345 0.0 0.0 0.00 0.00 0.00 60 1005.1
20260508224318 19 31 0.0 0.0 0.00 0.00 0.00 61 1004.9
20260508223815 18 90 0.0 0.0 0.00 0.00 0.00 63 1005.0
20260508223312 19 143 0.0 0.0 0.00 0.00 0.00 60 1005.1
20260508222810 20 164 0.0 0.0 0.00 0.00 0.00 59 1005.0
20260508222307 19 52 0.0 0.0 0.00 0.00 0.00 60 1005.0
20260508221804 19 261 0.0 0.0 0.00 0.00 0.00 62 1005.1
20260508221259 20 15 0.0 0.0 0.00 0.00 0.00 59 1004.9
20260508220755 20 147 0.0 0.0 0.00 0.00 0.00 58 1004.8
20260508220252 20 304 0.0 0.0 0.00 0.00 0.00 58 1005.1
20260508215749 18 165 0.0 0.0 0.00 0.00 0.00 61 1005.3
20260508215245 18 55 0.0 0.0 0.00 0.00 0.00 63 1005.0
20260508214743 18 15 0.0 0.0 0.00 0.00 0.00 62 1005.3
20260508214240 19 17 0.0 0.0 0.00 0.00 0.00 60 1005.1
20260508213736 19 179 0.0 0.0 0.00 0.00 0.00 61 1005.0
20260508213233 19 77 0.0 0.0 0.00 0.00 0.00 59 1005.0
20260508212729 18 65 0.0 0.0 0.00 0.00 0.00 63 1005.2
20260508212226 19 88 0.0 0.0 0.00 0.00 0.00 60 1005.1
20260508211721 20 150 0.0 0.0 0.00 0.00 0.00 54 1005.4
20260508211217 20 26 0.0 0.0 0.00 0.00 0.00 52 1005.1
20260508210715 20 69 0.0 0.0 0.00 0.00 0.00 54 1005.1
20260508210212 19 51 0.0 0.0 0.00 0.00 0.00 61 1005.1
20260508205709 20 236 0.0 0.0 0.00 0.00 0.00 56 1005.3
20260508205205 20 120 0.0 0.0 0.00 0.00 0.00 53 1005.4
20260508204701 20 56 0.0 0.0 0.00 0.00 0.00 48 1005.3
20260508204158 20 14 0.0 0.0 0.00 0.00 0.00 47 1005.2
20260508203654 19 2 0.0 0.0 0.00 0.00 0.00 48 1005.3
20260508203150 18 353 0.0 0.0 0.00 0.00 0.00 50 1005.4
20260508202646 20 161 0.0 0.0 0.00 0.00 0.00 54 1005.7
20260508202144 20 5 0.0 0.0 0.00 0.00 0.00 47 1005.6
20260508201640 21 38 0.0 0.0 0.00 0.00 0.00 47 1005.7
20260508201137 21 223 0.0 0.0 0.00 0.00 0.00 48 1005.8
20260508200634 20 147 0.0 0.0 0.00 0.00 0.00 56 1006.2
20260508200130 20 327 3.2 12.9 0.00 0.00 0.00 57 1006.2
20260508195627 19 63 0.0 0.0 0.00 0.00 0.00 59 1006.3
20260508195123 20 57 0.0 0.0 0.00 0.00 0.00 57 1006.3
20260508194620 21 255 0.0 0.0 0.00 0.00 0.00 53 1006.4
20260508194117 20 10 0.0 0.0 0.00 0.00 0.00 48 1006.4
20260508193614 20 89 0.0 0.0 0.00 0.00 0.00 47 1006.5
20260508193110 20 291 0.0 0.0 0.00 0.00 0.00 50 1006.4
20260508192607 19 43 0.0 0.0 0.00 0.00 0.00 49 1006.6
20260508192104 19 5 0.0 0.0 0.00 0.00 0.00 48 1006.6
20260508191601 20 43 0.0 0.0 0.00 0.00 0.00 48 1006.6
20260508191058 20 218 0.0 0.0 0.00 0.00 0.00 47 1006.6
20260508190555 20 234 0.0 0.0 0.00 0.00 0.00 51 1006.8
20260508190051 21 227 0.0 0.0 0.00 0.00 0.00 50 1006.9
20260508185548 21 216 0.0 0.0 0.00 0.00 0.00 49 1006.9
20260508185046 20 6 0.0 0.0 0.00 0.00 0.00 54 1006.8
20260508184543 20 110 0.0 0.0 0.00 0.00 0.00 53 1006.9
20260508184040 18 45 0.0 0.0 0.00 0.00 0.00 59 1007.2
20260508183536 18 46 0.0 0.0 0.00 0.00 0.00 55 1007.3
20260508183032 18 19 0.0 0.0 0.00 0.00 0.00 53 1007.0
20260508182529 20 14 0.0 0.0 0.00 0.00 0.00 51 1007.4
20260508182026 20 58 0.0 0.0 0.00 0.00 0.00 51 1007.6
20260508181521 20 275 0.0 0.0 0.00 0.00 0.00 50 1007.4
20260508181019 20 311 0.0 0.0 0.00 0.00 0.00 54 1007.4
20260508180515 19 323 0.0 0.0 0.00 0.00 0.00 57 1007.4
20260508180012 20 282 0.0 0.0 0.00 0.00 0.00 54 1007.6
20260508175508 20 252 0.0 0.0 0.00 0.00 0.00 56 1007.6
20260508175006 20 151 0.0 0.0 0.00 0.00 0.00 58 1007.9
20260508174503 20 246 0.0 0.0 0.00 0.00 0.00 54 1007.8
20260508174000 18 26 0.0 0.0 0.00 0.00 0.00 60 1007.9
20260508173457 19 217 0.0 0.0 0.00 0.00 0.00 58 1008.1
20260508172953 19 231 0.0 0.0 0.00 0.00 0.00 57 1007.9
20260508172450 21 235 0.0 0.0 0.00 0.00 0.00 58 1008.3
20260508171946 20 280 0.0 0.0 0.00 0.00 0.00 59 1008.3
20260508171443 20 223 0.0 4.8 0.00 0.00 0.00 56 1008.3
20260508170939 18 204 0.0 0.0 0.00 0.00 0.00 60 1008.7
20260508170437 19 66 0.0 0.0 0.00 0.00 0.00 62 1008.7
20260508165934 19 110 0.0 0.0 0.00 0.00 0.00 61 1008.3
20260508165432 18 27 0.0 0.0 0.00 0.00 0.00 59 1008.7
20260508164927 18 66 0.0 0.0 0.00 0.00 0.00 65 1009.0
20260508164425 17 48 0.0 0.0 0.00 0.00 0.00 63 1008.8
20260508163922 18 30 0.0 0.0 0.00 0.00 0.00 61 1008.8
20260508163419 18 95 0.0 0.0 0.00 0.00 0.00 63 1008.9
20260508162915 17 226 0.0 0.0 0.00 0.00 0.00 61 1009.2
20260508162413 18 50 0.0 0.0 0.00 0.00 0.00 63 1009.2
20260508161909 18 27 0.0 0.0 0.00 0.00 0.00 63 1009.4
20260508161407 18 28 0.0 0.0 0.00 0.00 0.00 64 1009.2
20260508160903 17 77 0.0 0.0 0.00 0.00 0.00 64 1009.3
20260508160403 17 205 0.0 0.0 0.00 0.00 0.00 64 1009.5
20260508155858 17 155 0.0 0.0 0.00 0.00 0.00 62 1009.5
20260508155356 16 164 0.0 0.0 0.00 0.00 0.00 64 1009.4
20260508154852 16 52 0.0 0.0 0.00 0.00 0.00 63 1009.4
20260508154350 16 145 0.0 0.0 0.00 0.00 0.00 62 1009.2
20260508153846 16 85 0.0 1.6 0.00 0.00 0.00 64 1009.4
20260508153344 16 156 0.0 0.0 0.00 0.00 0.00 64 1009.4
20260508152839 15 37 0.0 0.0 0.00 0.00 0.00 66 1009.7
20260508152336 15 145 0.0 0.0 0.00 0.00 0.00 67 1009.5
20260508151832 15 124 0.0 0.0 0.00 0.00 0.00 65 1009.8
20260508151330 15 62 0.0 0.0 0.00 0.00 0.00 66 1009.8
20260508150826 14 6 0.0 0.0 0.00 0.00 0.00 64 1009.8